QPF
0.00 0.00 0.00 0.00 0.00 0.00 0.00 0.00 0.00 0.00 0.00 0.01 0.00 0.00 0.00 0.01 0.01 0.02 0.06 0.01 0.00 0.01 0.02 0.02 0.00 0.00 0.00 0.00 0.00 0.00 0.00 0.00 0.00 0.00 0.00 0.00 0.00 0.00 0.00 0.00 0.00 0.00 0.00
0.00 0.00 0.00 0.00 0.00 0.00 0.00 0.00 0.00 0.00 0.00 0.00 0.00 0.00 0.00 0.00 0.00 0.02 0.04 0.01 0.02 0.03 0.05 0.03 0.02 0.01 0.00 0.00 0.00 0.00 0.00 0.00 0.00 0.00 0.00 0.00 0.00 0.00 0.00 0.00 0.00 0.00 0.00
0.00 0.00 0.00 0.00 0.00 0.00 0.00 0.00 0.00 0.00 0.00 0.00 0.00 0.00 0.00 0.00 0.00 0.00 0.00 0.01 0.03 0.10 0.13 0.09 0.06 0.03 0.01 0.01 0.01 0.01 0.02 0.01 0.00 0.00 0.00 0.00 0.00 0.00 0.00 0.00 0.00 0.00 0.00
0.00 0.00 0.00 0.00 0.00 0.00 0.00 0.00 0.00 0.00 0.00 0.00 0.00 0.00 0.00 0.00 0.00 0.00 0.00 0.00 0.02 0.10 0.13 0.10 0.08 0.04 0.03 0.05 0.05 0.07 0.07 0.05 0.02 0.00 0.00 0.00 0.00 0.00 0.00 0.00 0.00 0.00 0.00
0.00 0.00 0.00 0.00 0.00 0.00 0.00 0.00 0.00 0.00 0.00 0.00 0.00 0.00 0.00 0.00 0.00 0.00 0.00 0.00 0.02 0.05 0.09 0.05 0.07 0.04 0.03 0.04 0.03 0.04 0.04 0.03 0.02 0.01 0.01 0.00 0.00 0.00 0.00 0.00 0.00 0.00 0.00
0.00 0.00 0.00 0.00 0.00 0.00 0.00 0.00 0.00 0.00 0.00 0.00 0.00 0.00 0.00 0.01 0.00 0.01 0.03 0.02 0.02 0.02 0.04 0.04 0.03 0.04 0.04 0.05 0.05 0.03 0.02 0.01 0.01 0.01 0.01 0.00 0.00 0.00 0.00 0.00 0.00 0.00 0.00
0.00 0.00 0.00 0.00 0.00 0.00 0.00 0.00 0.00 0.00 0.00 0.00 0.00 0.00 0.00 0.01 0.01 0.02 0.02 0.03 0.02 0.01 0.01 0.01 0.02 0.02 0.05 0.05 0.05 0.04 0.03 0.01 0.01 0.01 0.01 0.00 0.00 0.00 0.00 0.00 0.00 0.00 0.00
0.00 0.00 0.00 0.00 0.00 0.00 0.00 0.00 0.00 0.00 0.00 0.00 0.00 0.00 0.00 0.00 0.00 0.00 0.00 0.00 0.00 0.02 0.04 0.05 0.04 0.04 0.04 0.04 0.04 0.03 0.02 0.00 0.00 0.00 0.00 0.00 0.00 0.00 0.00 0.00 0.00 0.00 0.00
0.00 0.00 0.00 0.00 0.00 0.00 0.00 0.00 0.00 0.00 0.00 0.00 0.00 0.00 0.00 0.00 0.00 0.00 0.00 0.00 0.00 0.00 0.02 0.06 0.09 0.09 0.07 0.05 0.03 0.01 0.00 0.00 0.00 0.00 0.00 0.00 0.00 0.00 0.00 0.00 0.00 0.00 0.00
0.00 0.00 0.00 0.00 0.00 0.00 0.00 0.00 0.00 0.00 0.00 0.00 0.00 0.00 0.00 0.00 0.00 0.00 0.00 0.00 0.00 0.00 0.01 0.03 0.03 0.05 0.05 0.03 0.02 0.00 0.00 0.00 0.00 0.00 0.00 0.00 0.00 0.00 0.00 0.00 0.00 0.00 0.00
0.00 0.00 0.00 0.00 0.00 0.00 0.00 0.00 0.00 0.00 0.00 0.00 0.00 0.00 0.00 0.00 0.00 0.00 0.00 0.00 0.00 0.00 0.01 0.01 0.02 0.02 0.02 0.01 0.00 0.00 0.00 0.00 0.00 0.00 0.00 0.00 0.00 0.01 0.01 0.02 0.02 0.01 0.00
0.00 0.00 0.00 0.00 0.00 0.00 0.00 0.00 0.00 0.00 0.00 0.00 0.00 0.00 0.00 0.00 0.00 0.00 0.00 0.00 0.00 0.01 0.01 0.02 0.03 0.02 0.01 0.00 0.00 0.00 0.00 0.00 0.00 0.00 0.01 0.01 0.02 0.02 0.02 0.01 0.01 0.01 0.01
0.00 0.00 0.00 0.00 0.00 0.00 0.00 0.00 0.00 0.00 0.00 0.00 0.00 0.00 0.00 0.00 0.00 0.00 0.00 0.00 0.00 0.00 0.01 0.01 0.01 0.01 0.00 0.00 0.00 0.00 0.00 0.00 0.00 0.01 0.01 0.02 0.02 0.05 0.08 0.06 0.03 0.02 0.01
0.00 0.00 0.00 0.00 0.00 0.00 0.00 0.00 0.00 0.00 0.00 0.00 0.00 0.00 0.00 0.00 0.00 0.00 0.00 0.00 0.00 0.01 0.01 0.01 0.00 0.00 0.00 0.00 0.00 0.01 0.01 0.01 0.02 0.04 0.06 0.08 0.11 0.11 0.07 0.03 0.02 0.01 0.00
0.00 0.00 0.00 0.00 0.00 0.00 0.00 0.00 0.00 0.00 0.00 0.00 0.00 0.00 0.00 0.00 0.00 0.00 0.01 0.01 0.02 0.02 0.01 0.00 0.00 0.00 0.00 0.01 0.02 0.03 0.05 0.06 0.06 0.08 0.09 0.06 0.03 0.01 0.01 0.01 0.00 0.00 0.00
0.00 0.00 0.00 0.00 0.00 0.00 0.00 0.00 0.00 0.00 0.00 0.00 0.00 0.00 0.00 0.00 0.00 0.01 0.03 0.04 0.04 0.03 0.03 0.04 0.02 0.01 0.01 0.06 0.05 0.05 0.08 0.13 0.16 0.16 0.12 0.07 0.03 0.01 0.00 0.00 0.00 0.00 0.00
0.00 0.00 0.00 0.00 0.00 0.00 0.00 0.00 0.00 0.00 0.00 0.00 0.00 0.00 0.00 0.00 0.01 0.01 0.01 0.01 0.04 0.01 0.01 0.02 0.04 0.05 0.04 0.09 0.10 0.13 0.15 0.12 0.08 0.05 0.03 0.01 0.00 0.00 0.00 0.00 0.00 0.00 0.00
0.00 0.00 0.00 0.00 0.00 0.00 0.00 0.00 0.00 0.00 0.00 0.01 0.00 0.00 0.05 0.19 0.13 0.10 0.14 0.16 0.04 0.04 0.04 0.05 0.05 0.09 0.17 0.16 0.08 0.03 0.02 0.02 0.01 0.01 0.00 0.00 0.00 0.00 0.00 0.00 0.00 0.00 0.00
0.00 0.00 0.00 0.00 0.00 0.00 0.00 0.00 0.00 0.00 0.00 0.03 0.05 0.09 0.11 0.19 0.10 0.20 0.18 0.34 0.17 0.10 0.11 0.12 0.14 0.10 0.06 0.05 0.04 0.04 0.05 0.03 0.01 0.00 0.00 0.00 0.00 0.00 0.00 0.00 0.00 0.00 0.00
0.00 0.00 0.00 0.00 0.00 0.00 0.00 0.00 0.00 0.00 0.00 0.00 0.01 0.03 0.01 0.01 0.01 0.05 0.04 0.06 0.03 0.07 0.16 0.14 0.08 0.07 0.03 0.01 0.01 0.01 0.00 0.00 0.00 0.00 0.00 0.00 0.00 0.00 0.00 0.00 0.00 0.00 0.00
0.00 0.00 0.00 0.00 0.00 0.00 0.00 0.00 0.00 0.00 0.00 0.00 0.01 0.03 0.02 0.06 0.11 0.22 0.16 0.13 0.12 0.07 0.05 0.04 0.03 0.01 0.00 0.00 0.00 0.00 0.00 0.00 0.00 0.00 0.00 0.00 0.00 0.00 0.00 0.00 0.00 0.00 0.00
0.00 0.00 0.00 0.00 0.00 0.00 0.00 0.00 0.00 0.01 0.03 0.02 0.07 0.12 0.14 0.11 0.09 0.08 0.06 0.04 0.02 0.01 0.01 0.01 0.00 0.00 0.00 0.00 0.00 0.00 0.00 0.00 0.00 0.00 0.00 0.00 0.00 0.00 0.00 0.00 0.00 0.00 0.00
0.00 0.00 0.00 0.00 0.00 0.00 0.00 0.00 0.00 0.00 0.02 0.04 0.05 0.03 0.02 0.01 0.01 0.00 0.00 0.00 0.00 0.00 0.00 0.00 0.00 0.00 0.00 0.00 0.00 0.00 0.00 0.00 0.00 0.00 0.00 0.00 0.00 0.00 0.00 0.00 0.00 0.00 0.00
0.00 0.00 0.00 0.00 0.00 0.00 0.00 0.00 0.00 0.00 0.00 0.00 0.00 0.00 0.00 0.00 0.00 0.00 0.00 0.00 0.00 0.00 0.00 0.00 0.00 0.00 0.00 0.00 0.00 0.00 0.00 0.00 0.00 0.00 0.00 0.00 0.00 0.00 0.00 0.00 0.00 0.00 0.00
0.00 0.00 0.00 0.00 0.00 0.00 0.00 0.00 0.00 0.00 0.00 0.00 0.00 0.00 0.00 0.00 0.00 0.00 0.00 0.00 0.00 0.00 0.00 0.00 0.00 0.00 0.00 0.00 0.00 0.00 0.00 0.00 0.00 0.00 0.00 0.00 0.00 0.00 0.00 0.00 0.00 0.00 0.00
0.00 0.00 0.00 0.00 0.00 0.00 0.00 0.00 0.00 0.00 0.00 0.00 0.00 0.00 0.00 0.00 0.00 0.00 0.00 0.00 0.00 0.00 0.00 0.00 0.00 0.00 0.00 0.00 0.00 0.00 0.00 0.00 0.00 0.00 0.00 0.00 0.00 0.00 0.00 0.00 0.00 0.00 0.00
MSLP
1010.29 1010.46 1010.24 1010.10 1010.39 1010.49 1010.48 1010.47 1010.59 1010.54 1010.88 1011.28 1011.45 1011.81 1012.12 1012.39 1012.96 1013.03 1013.25 1013.64 1014.08 1014.77 1015.44 1015.98 1016.77 1017.29 1017.81 1018.35 1019.11 1019.94 1020.57 1021.13 1021.33 1022.14 1022.66 1022.60 1022.65 1022.73 1022.86 1023.00 1023.16 1023.26 1023.42
1010.31 1010.18 1010.00 1009.95 1009.95 1009.97 1010.08 1010.14 1010.10 1009.97 1010.08 1010.38 1010.55 1010.65 1010.90 1011.43 1011.68 1012.10 1012.37 1012.70 1013.18 1013.93 1014.68 1015.05 1015.97 1016.78 1017.47 1018.09 1018.66 1018.97 1020.17 1020.75 1021.01 1021.67 1022.52 1022.90 1022.98 1022.86 1022.91 1023.10 1022.98 1023.10 1023.23
1010.75 1010.08 1009.92 1009.70 1009.69 1009.78 1009.56 1009.60 1009.61 1009.50 1009.38 1009.51 1009.94 1010.44 1010.60 1011.11 1011.44 1011.73 1011.96 1012.00 1012.48 1013.03 1013.77 1014.44 1015.20 1015.93 1016.66 1017.30 1017.75 1018.41 1018.99 1020.06 1021.02 1021.07 1021.37 1022.61 1022.69 1022.86 1023.00 1023.19 1023.25 1023.18 1023.44
1010.85 1010.39 1009.86 1009.48 1009.39 1008.94 1008.88 1008.81 1008.77 1008.90 1008.84 1009.04 1009.41 1009.70 1009.80 1010.14 1010.31 1010.41 1010.68 1011.13 1011.40 1012.06 1012.80 1013.58 1014.45 1015.10 1015.85 1016.66 1017.13 1017.63 1018.27 1019.50 1020.29 1021.07 1021.12 1021.31 1021.43 1022.21 1023.14 1023.31 1023.40 1023.35 1023.52
1011.35 1010.80 1010.39 1009.96 1009.66 1009.40 1009.12 1008.76 1008.56 1008.51 1008.32 1008.36 1008.51 1008.89 1009.25 1009.47 1009.61 1010.01 1010.41 1010.94 1011.18 1011.08 1011.71 1012.50 1013.46 1014.41 1014.94 1015.52 1016.31 1017.09 1017.30 1018.12 1019.07 1019.58 1020.58 1021.04 1021.31 1021.58 1021.93 1022.97 1023.18 1023.40 1023.38
1011.19 1010.85 1010.54 1010.24 1010.06 1009.58 1009.35 1009.19 1008.98 1008.59 1008.43 1008.45 1008.38 1008.47 1008.71 1008.96 1009.31 1009.57 1009.87 1010.25 1010.74 1011.06 1011.20 1011.67 1012.52 1013.24 1014.02 1014.76 1015.42 1016.30 1016.92 1017.46 1018.27 1018.97 1019.22 1019.68 1020.19 1021.11 1021.49 1022.45 1022.75 1023.04 1023.29
1011.53 1011.09 1010.85 1010.59 1010.17 1009.88 1009.60 1009.46 1009.33 1009.08 1008.79 1008.77 1008.70 1008.51 1008.41 1008.54 1008.70 1008.79 1009.03 1009.62 1010.22 1010.64 1010.74 1011.05 1011.87 1012.52 1013.02 1013.88 1014.84 1015.86 1016.52 1017.26 1017.97 1018.51 1019.25 1019.45 1019.86 1020.38 1020.77 1021.86 1022.46 1022.90 1023.46
1011.79 1011.56 1011.24 1010.74 1010.30 1009.98 1009.69 1009.54 1009.43 1009.18 1009.00 1008.66 1008.51 1008.41 1008.30 1008.29 1008.23 1008.40 1008.54 1008.67 1009.00 1009.17 1009.89 1010.51 1011.00 1011.60 1012.73 1013.31 1014.25 1015.38 1016.32 1017.06 1017.71 1018.45 1019.19 1019.67 1020.09 1020.29 1021.20 1021.04 1022.60 1023.25 1023.49
1011.88 1011.58 1011.27 1010.88 1010.40 1009.94 1009.52 1009.41 1009.37 1009.14 1008.82 1008.81 1008.50 1008.23 1008.01 1007.97 1007.86 1007.66 1007.76 1008.09 1008.44 1008.58 1009.23 1010.02 1010.68 1011.67 1012.57 1013.60 1013.72 1014.89 1016.07 1016.95 1017.76 1018.40 1019.13 1019.83 1020.35 1020.92 1021.13 1021.42 1021.68 1022.57 1023.47
1011.87 1011.63 1011.40 1010.91 1010.37 1009.87 1009.39 1008.99 1008.97 1009.07 1008.83 1008.59 1008.30 1007.93 1007.64 1007.32 1007.16 1007.34 1007.62 1007.86 1008.13 1008.63 1009.41 1009.96 1010.81 1011.77 1012.57 1013.50 1013.74 1014.85 1015.99 1016.95 1018.01 1018.51 1019.09 1020.15 1020.42 1020.99 1021.75 1022.03 1021.78 1023.18 1023.40
1011.79 1011.64 1011.44 1010.94 1010.32 1009.55 1009.15 1009.02 1009.01 1009.07 1008.92 1008.85 1008.30 1007.88 1007.61 1007.29 1007.16 1007.39 1007.60 1008.00 1008.54 1008.91 1009.65 1010.48 1010.94 1011.64 1012.35 1013.11 1013.91 1014.92 1015.96 1016.95 1017.82 1018.58 1019.14 1019.90 1020.60 1020.98 1021.74 1022.40 1022.91 1023.14 1023.80
1012.02 1011.94 1011.60 1011.09 1010.35 1009.84 1009.61 1009.49 1009.49 1009.40 1009.29 1008.94 1008.53 1008.43 1008.02 1007.64 1007.77 1007.86 1007.94 1008.12 1008.81 1009.22 1009.57 1010.33 1011.22 1011.80 1012.65 1013.38 1014.22 1015.16 1016.28 1017.09 1017.99 1018.71 1019.24 1020.21 1020.52 1021.31 1021.79 1022.19 1023.05 1023.25 1023.51
1012.04 1011.81 1011.32 1011.11 1011.15 1010.91 1010.74 1010.35 1009.91 1009.16 1009.10 1008.84 1008.60 1009.11 1008.31 1008.09 1008.18 1008.21 1008.18 1008.42 1008.81 1009.49 1009.99 1010.40 1011.27 1012.09 1012.81 1013.70 1014.70 1015.54 1016.86 1017.88 1018.60 1019.05 1019.74 1020.17 1020.68 1020.96 1021.76 1022.32 1022.53 1022.92 1023.21
1012.00 1011.86 1011.66 1011.81 1011.53 1011.41 1011.49 1011.30 1010.38 1010.01 1010.29 1010.47 1010.15 1008.91 1008.70 1008.60 1008.58 1008.70 1008.81 1009.07 1009.57 1009.96 1010.55 1011.33 1012.02 1012.74 1013.60 1014.41 1015.52 1016.57 1017.57 1018.41 1019.32 1019.70 1020.18 1020.61 1020.90 1021.16 1021.71 1022.01 1022.17 1022.15 1022.56
1012.22 1012.24 1012.27 1011.90 1011.95 1011.98 1011.94 1011.50 1011.38 1011.10 1010.88 1010.55 1010.03 1009.76 1009.52 1009.22 1009.37 1009.60 1009.78 1010.03 1010.65 1011.32 1011.63 1012.13 1013.06 1013.72 1014.47 1015.39 1016.18 1017.23 1018.07 1019.03 1019.63 1020.21 1020.65 1020.96 1021.18 1021.42 1021.59 1021.43 1021.34 1021.76 1021.97
1012.74 1012.70 1012.46 1012.10 1012.35 1012.52 1012.64 1012.41 1012.04 1011.66 1011.40 1011.13 1010.99 1010.77 1010.62 1010.62 1010.74 1010.95 1011.22 1011.41 1011.67 1012.22 1012.90 1013.54 1013.77 1014.86 1015.74 1016.10 1016.80 1017.67 1018.54 1019.29 1019.76 1020.27 1020.95 1021.30 1021.12 1021.32 1021.23 1021.00 1021.29 1021.10 1021.08
1013.16 1013.20 1013.06 1012.98 1012.89 1013.26 1013.24 1013.09 1012.86 1012.70 1012.46 1012.14 1011.79 1011.59 1011.58 1011.74 1011.96 1012.04 1012.53 1013.29 1013.43 1013.58 1013.86 1014.62 1015.10 1015.32 1016.52 1017.13 1017.43 1018.35 1019.06 1019.30 1020.23 1020.52 1020.79 1021.21 1021.26 1021.12 1020.96 1021.07 1021.10 1020.88 1020.73
1013.58 1013.78 1013.79 1013.83 1013.59 1013.51 1013.39 1013.47 1013.46 1013.38 1013.18 1013.10 1013.06 1012.79 1012.66 1012.62 1012.92 1013.02 1013.64 1014.18 1014.62 1015.16 1015.39 1015.70 1016.19 1016.66 1017.47 1017.66 1018.35 1018.74 1019.24 1020.07 1019.96 1020.59 1020.87 1021.02 1020.99 1020.88 1020.81 1020.90 1020.90 1020.80 1020.66
1014.07 1014.15 1014.21 1014.28 1014.14 1013.91 1013.83 1013.87 1013.95 1013.99 1014.01 1013.99 1013.93 1013.86 1013.71 1013.54 1014.17 1014.02 1014.76 1015.26 1015.72 1015.94 1016.69 1017.00 1017.33 1017.57 1018.07 1018.36 1019.03 1019.69 1019.94 1019.77 1020.21 1020.72 1021.09 1021.09 1020.96 1020.87 1020.70 1020.41 1020.80 1020.69 1020.51
1014.55 1014.50 1014.55 1014.62 1014.48 1014.37 1014.31 1014.32 1014.48 1014.60 1014.57 1014.52 1014.47 1014.67 1014.56 1014.69 1015.01 1015.53 1015.88 1016.36 1016.86 1017.41 1017.84 1018.10 1018.28 1018.64 1018.65 1018.92 1019.57 1019.87 1020.00 1020.38 1020.62 1021.03 1021.16 1021.06 1020.84 1020.52 1020.27 1020.03 1020.31 1020.62 1020.52
1014.76 1014.86 1014.92 1015.01 1015.01 1014.94 1014.87 1015.05 1015.28 1015.28 1015.37 1015.30 1015.41 1015.44 1015.51 1015.74 1016.16 1016.58 1017.14 1017.70 1018.04 1018.39 1018.71 1019.13 1019.28 1019.32 1019.35 1019.25 1019.44 1019.83 1020.06 1020.41 1020.86 1021.06 1021.07 1020.94 1020.59 1020.12 1019.95 1019.97 1020.27 1020.19 1019.74
1014.88 1015.02 1015.17 1015.43 1015.52 1015.49 1015.51 1015.77 1015.98 1016.16 1016.15 1016.12 1016.24 1016.46 1016.59 1016.84 1017.30 1017.77 1018.28 1018.48 1018.94 1019.26 1019.45 1019.55 1019.71 1019.94 1019.89 1019.79 1019.90 1020.09 1020.27 1020.45 1020.76 1020.87 1020.76 1020.55 1020.32 1020.18 1020.14 1020.15 1020.03 1019.68 1019.61
1015.03 1015.31 1015.48 1015.77 1015.98 1016.09 1016.24 1016.38 1016.63 1016.71 1016.84 1016.98 1017.32 1017.51 1017.76 1017.97 1018.19 1018.48 1018.85 1019.19 1019.41 1019.46 1019.75 1020.04 1020.48 1020.69 1020.62 1020.46 1020.40 1020.47 1020.53 1020.56 1020.47 1020.55 1020.51 1020.59 1020.52 1020.46 1020.48 1020.28 1019.96 1019.84 1019.80
1015.22 1015.45 1015.83 1016.13 1016.35 1016.66 1016.74 1016.86 1017.08 1017.23 1017.39 1017.73 1018.09 1018.35 1018.56 1019.01 1019.23 1019.38 1019.55 1019.73 1019.97 1020.19 1020.46 1020.67 1020.89 1020.96 1020.98 1020.88 1020.73 1020.66 1020.61 1020.62 1020.63 1020.73 1020.86 1020.85 1020.83 1020.72 1020.55 1020.30 1020.08 1019.91 1019.76
1015.35 1015.56 1015.97 1016.41 1016.78 1017.00 1017.18 1017.23 1017.38 1017.70 1018.06 1018.45 1018.84 1019.15 1019.40 1019.69 1019.93 1020.00 1020.07 1020.22 1020.32 1020.35 1020.59 1020.88 1020.97 1021.02 1021.04 1020.85 1020.58 1020.53 1020.48 1020.55 1020.62 1020.82 1021.03 1021.09 1021.02 1020.80 1020.48 1020.19 1020.04 1019.89 1019.72
1015.48 1015.72 1015.99 1016.41 1016.90 1017.18 1017.42 1017.62 1017.85 1018.16 1018.53 1019.05 1019.47 1019.81 1020.09 1020.37 1020.48 1020.47 1020.54 1020.29 1020.39 1020.56 1020.68 1020.80 1020.76 1020.85 1020.69 1020.63 1020.67 1020.68 1020.66 1020.79 1020.65 1021.04 1021.23 1021.16 1020.99 1020.87 1020.70 1020.51 1020.23 1019.98 1019.68
Thickness
5674 5672 5676 5678 5677 5679 5680 5681 5680 5682 5681 5678 5677 5675 5674 5674 5669 5670 5668 5666 5664 5660 5654 5650 5642 5638 5637 5633 5627 5620 5615 5611 5608 5601 5596 5596 5594 5593 5590 5587 5585 5582 5579
5664 5666 5668 5671 5672 5673 5674 5674 5676 5676 5677 5676 5676 5677 5676 5673 5672 5670 5667 5667 5665 5659 5652 5650 5642 5636 5630 5626 5623 5620 5610 5606 5602 5598 5589 5588 5586 5584 5582 5579 5578 5576 5574
5652 5660 5662 5665 5665 5665 5668 5670 5670 5672 5674 5675 5672 5669 5669 5667 5665 5663 5663 5665 5661 5658 5650 5645 5639 5634 5629 5626 5623 5617 5612 5602 5592 5592 5591 5576 5582 5575 5572 5570 5568 5568 5564
5641 5646 5653 5657 5659 5663 5664 5665 5666 5666 5667 5666 5665 5666 5668 5666 5667 5665 5664 5660 5658 5655 5649 5643 5636 5633 5629 5623 5620 5616 5610 5600 5592 5583 5583 5580 5580 5578 5569 5561 5559 5557 5555
5628 5635 5638 5642 5646 5648 5649 5654 5657 5658 5661 5662 5662 5659 5659 5662 5660 5658 5655 5651 5650 5653 5649 5643 5636 5630 5627 5624 5618 5612 5610 5603 5594 5589 5579 5574 5571 5568 5567 5559 5554 5548 5547
5621 5626 5629 5633 5634 5637 5639 5640 5642 5646 5648 5648 5650 5652 5651 5650 5646 5646 5647 5646 5643 5643 5643 5640 5635 5630 5624 5619 5616 5608 5603 5599 5592 5586 5582 5578 5572 5564 5560 5553 5547 5543 5538
5614 5619 5622 5623 5626 5628 5629 5629 5630 5631 5633 5633 5633 5637 5641 5641 5640 5641 5641 5637 5633 5633 5636 5634 5629 5625 5621 5615 5609 5601 5595 5589 5583 5578 5572 5569 5564 5558 5554 5545 5537 5533 5526
5604 5609 5612 5614 5616 5618 5618 5617 5616 5616 5617 5619 5620 5620 5622 5625 5629 5629 5630 5631 5631 5633 5629 5627 5625 5622 5613 5609 5601 5594 5587 5580 5574 5568 5562 5557 5552 5549 5540 5540 5527 5520 5513
5596 5599 5601 5603 5605 5607 5609 5605 5603 5601 5601 5600 5602 5604 5608 5611 5615 5618 5620 5622 5621 5624 5621 5617 5614 5610 5604 5584 5591 5585 5576 5569 5562 5557 5551 5546 5539 5532 5529 5525 5520 5512 5503
5587 5587 5589 5592 5595 5597 5598 5595 5591 5586 5584 5584 5584 5588 5590 5594 5599 5601 5604 5606 5608 5608 5604 5604 5601 5596 5592 5584 5581 5574 5565 5558 5550 5546 5542 5532 5528 5521 5514 5509 5508 5493 5490
5583 5581 5579 5580 5583 5586 5584 5579 5573 5568 5565 5561 5563 5567 5570 5576 5580 5582 5584 5586 5587 5587 5586 5585 5585 5583 5579 5576 5570 5562 5555 5548 5542 5536 5531 5522 5515 5511 5502 5492 5486 5479 5472
5573 5568 5567 5567 5570 5566 5562 5554 5545 5539 5534 5534 5538 5539 5547 5555 5558 5560 5565 5570 5569 5570 5572 5571 5568 5567 5563 5559 5555 5549 5542 5536 5530 5524 5519 5510 5506 5497 5489 5482 5469 5466 5462
5562 5562 5561 5557 5550 5543 5534 5528 5521 5518 5514 5514 5517 5515 5527 5534 5538 5543 5549 5552 5555 5554 5556 5557 5554 5551 5550 5545 5538 5534 5525 5518 5514 5510 5504 5499 5492 5487 5476 5467 5461 5456 5449
5557 5558 5551 5542 5534 5528 5517 5507 5507 5502 5494 5491 5495 5508 5513 5518 5521 5524 5529 5533 5534 5536 5537 5535 5535 5533 5531 5528 5522 5515 5509 5504 5497 5494 5488 5483 5477 5470 5463 5456 5451 5447 5439
5545 5541 5534 5534 5525 5514 5506 5499 5492 5487 5483 5482 5488 5492 5498 5503 5506 5506 5510 5512 5512 5512 5516 5517 5515 5514 5514 5511 5508 5501 5497 5490 5484 5477 5472 5466 5460 5456 5450 5448 5444 5436 5429
5534 5533 5526 5528 5516 5502 5493 5489 5485 5481 5479 5479 5478 5481 5484 5486 5487 5489 5490 5492 5494 5495 5495 5497 5502 5498 5496 5499 5495 5489 5483 5477 5471 5466 5458 5451 5448 5442 5440 5437 5430 5427 5418
5528 5522 5517 5512 5505 5492 5485 5480 5479 5476 5474 5472 5473 5476 5477 5476 5475 5476 5473 5469 5472 5478 5481 5482 5484 5489 5477 5481 5481 5475 5469 5467 5458 5453 5447 5441 5436 5431 5427 5422 5416 5413 5407
5520 5512 5508 5502 5494 5491 5488 5480 5475 5471 5468 5468 5467 5468 5469 5469 5468 5468 5463 5462 5461 5461 5465 5469 5472 5474 5470 5469 5465 5463 5459 5451 5449 5441 5435 5429 5424 5420 5416 5409 5403 5398 5390
5511 5507 5503 5496 5492 5490 5486 5481 5475 5470 5465 5461 5461 5461 5462 5463 5458 5458 5455 5454 5452 5455 5455 5457 5459 5460 5458 5457 5452 5446 5443 5443 5436 5429 5421 5417 5412 5407 5403 5401 5392 5385 5376
5503 5501 5498 5494 5491 5488 5482 5479 5474 5469 5466 5462 5460 5457 5457 5456 5455 5451 5450 5448 5448 5445 5446 5446 5448 5448 5447 5445 5439 5435 5434 5427 5423 5414 5409 5406 5402 5399 5395 5390 5380 5368 5360
5499 5495 5493 5489 5486 5483 5480 5474 5469 5466 5462 5460 5458 5456 5454 5452 5449 5446 5443 5440 5439 5438 5437 5436 5437 5436 5437 5437 5435 5430 5424 5418 5410 5403 5397 5393 5391 5388 5382 5374 5362 5354 5349
5495 5493 5489 5484 5481 5478 5476 5470 5465 5462 5460 5458 5455 5452 5451 5450 5446 5441 5437 5437 5435 5433 5431 5431 5430 5428 5426 5427 5424 5420 5414 5409 5401 5396 5390 5385 5380 5373 5363 5354 5345 5339 5331
5494 5489 5486 5481 5477 5473 5469 5467 5462 5459 5456 5454 5450 5448 5446 5444 5441 5438 5435 5432 5430 5429 5426 5424 5420 5417 5415 5413 5412 5408 5404 5399 5394 5387 5380 5371 5362 5352 5340 5332 5325 5317 5308
5493 5488 5483 5478 5473 5468 5466 5463 5460 5457 5455 5450 5445 5442 5440 5436 5434 5432 5430 5427 5424 5421 5418 5416 5411 5407 5405 5403 5400 5396 5392 5388 5381 5371 5360 5350 5339 5328 5316 5306 5299 5293 5290
5488 5485 5480 5474 5469 5465 5462 5461 5458 5454 5448 5443 5440 5436 5433 5431 5428 5426 5423 5421 5418 5416 5411 5407 5404 5401 5398 5397 5396 5391 5385 5377 5368 5357 5341 5326 5312 5300 5291 5285 5282 5283 5285
5485 5481 5477 5472 5467 5464 5461 5457 5453 5449 5444 5439 5435 5431 5427 5423 5421 5419 5417 5420 5417 5413 5409 5405 5402 5398 5396 5392 5386 5379 5372 5363 5353 5336 5319 5304 5291 5282 5278 5278 5280 5281 5282